ฮานอย, ประเทศเวียดนาม

02:21 AM ICT วัน กรกฎาคม 06, 2015 (GMT +0700)
Noibai International | | Change Station
CLOSE
Current Station
Airport
Location: Ha Noi,
Elevation: 36 ft
Nearby Weather Stations

Elev 36 ft 21.22 °N, 105.81 °E | Updated 21 minutes ago

Clear
ท้องฟ้าแจ่มใส
79 ฟาเรนไฮน์
Feels Like 79 ฟาเรนไฮน์
N
7
ลม ความผันแปร ลม from ทางทิศตะวันตกเฉียงเหนือ

วันนี้
High -- | Low -- ฟาเรนไฮน์
--% Chance of Precip.
Yesterday
High -- | Low -- ฟาเรนไฮน์
Precip. -- นิ้ว
5:20 AM 6:42 PM
ข้างแรม, 82% visible
ความดัน 29.68 นิ้ว
ทัศนวิสัย -9999.0 ไมล์
เมฆ
อุณหภูมิที่อากาศอาจจับตัวเป็นหยาดน้ำค้าง 73 ฟาเรนไฮน์
ความชื้น 83%
Rainfall 0.00 นิ้ว
Snow Depth Not available.
UV Not available.
Pollen Not available.
Air Quality Not available.
Flu Activity Not available.
METAR VVNB 051900Z 32006KT CAVOK 26/23 Q1005 NOSIG

More Conditions Fewer Conditions

ความดัน 29.68 นิ้ว
ทัศนวิสัย -9999.0 ไมล์
เมฆ
อุณหภูมิที่อากาศอาจจับตัวเป็นหยาดน้ำค้าง 73 ฟาเรนไฮน์
ความชื้น 83%
Rainfall 0.00 นิ้ว
Snow Depth Not available.
UV Not available.
Pollen Not available.
Air Quality Not available.
Flu Activity Not available.
METAR VVNB 051900Z 32006KT CAVOK 26/23 Q1005 NOSIG

More Conditions Fewer Conditions

10-Day Weather Forecast

×

Almanac

ดาราศาสตร์

Jul. 06, 2015 Rise Set
Actual Time
Civil Twilight
Nautical Twilight
Astronomical Twilight
Moon
Length Of Visible Light
ความยาวของวัน
Tomorrow will be .
, % of the Moon is Illuminated

Today's Extremes

Country Highs Country Lows

Community

WunderPhotos

Upload Photos

1,835,354 photos uploaded!

WunderBlogs® & News

Nearby

Air Quality

  Air Quality AQ Index Pollutant
Not available.

Snow Depth

Station Depth Elevation

Earthquake Activity

City Distance Mag. Time & Date
Minimum magnitude displayed is 2.5.

Coastal Water Temperatures

สถานที่ อุณหภูมิ

Stations

Nearby Weather Stations

Station Location Temp ลมหนาว อุณหภูมิที่อากาศอาจจับตัวเป็นหยาดน้ำค้าง ความชื้น ลม Precip. Elev ปรับปรุงล่าสุด Type